Stations météo

réclame
Mon MeteoGroup
Kolmaardenstroemsfors, Suède (2558): Température de l'air & dewpoint: 17.07.2018 17:00:00 - 23.07.2018 17:00:00 (CEST)Kolmaardenstroemsfors, Suède (2558): Vitesse du vent & gusts: 17.07.2018 17:00:00 - 23.07.2018 17:00:00 (CEST)Kolmaardenstroemsfors, Suède (2558): Direction du vent: 17.07.2018 17:00:00 - 23.07.2018 17:00:00 (CEST)Kolmaardenstroemsfors, Suède (2558): reduced air pressure: 17.07.2018 17:00:00 - 23.07.2018 17:00:00 (CEST)Kolmaardenstroemsfors, Suède (2558): visibility: 17.07.2018 17:00:00 - 23.07.2018 17:00:00 (CEST)Kolmaardenstroemsfors, Suède (2558): Quantités de précipitations: 17.07.2018 17:00:00 - 23.07.2018 17:00:00 (CEST)
Date & Time tt [°C] td [°C] ff [km/h] ff [knt] fx [km/h] fx [knt] dd ppp [hPa] vv [km] rr [mm]
23.07.2018 17:00:00 - - - - - - - - - -
23.07.2018 16:00:00 26,9 11,8 10 5 27 15 SW 1010,0 37 0,0
23.07.2018 15:00:00 25,8 11,2 10 5 27 15 SW 1010,4 44 0,0
23.07.2018 14:00:00 25,7 10,7 11 6 28 15 SW 1010,7 40 0,0
23.07.2018 13:00:00 24,6 11,5 11 6 28 15 SW 1010,8 46 0,0
23.07.2018 12:00:00 24,2 11,8 9 5 29 15 SW 1010,9 43 0,0
23.07.2018 11:00:00 22,0 12,5 10 5 29 15 SW 1010,9 41 0,0
23.07.2018 10:00:00 19,5 12,5 10 5 23 12 SW 1011,1 43 0,0
23.07.2018 09:00:00 18,5 12,5 5 3 18 10 WSW 1011,0 47 0,0
23.07.2018 08:00:00 17,9 13,0 6 3 16 9 SW 1011,1 43 0,0
23.07.2018 07:00:00 16,7 12,2 4 2 15 8 SW 1010,8 41 0,0
23.07.2018 06:00:00 15,6 12,2 4 2 16 9 WSW 1010,7 43 0,0
23.07.2018 05:00:00 15,2 12,0 9 5 17 9 W 1010,7 46 0,0
23.07.2018 04:00:00 15,2 11,8 8 4 17 9 W 1010,5 50 0,0
23.07.2018 03:00:00 15,6 11,6 7 4 15 8 WSW 1010,4 48 0,0
23.07.2018 02:00:00 16,4 11,5 8 4 13 7 WSW 1010,2 46 0,0
23.07.2018 01:00:00 16,5 11,0 5 3 14 7 SW 1010,4 50 0,0
23.07.2018 00:00:00 16,8 10,4 5 3 19 10 WSW 1010,5 50 0,0
22.07.2018 23:00:00 18,0 10,1 8 5 19 11 W 1010,2 50 0,0
22.07.2018 22:00:00 18,6 10,2 9 5 25 14 W 1010,0 49 0,0
22.07.2018 21:00:00 20,0 9,6 8 4 31 17 W 1009,3 50 0,0
22.07.2018 20:00:00 21,8 9,7 12 6 33 18 W 1008,6 50 0,0
22.07.2018 19:00:00 23,4 9,4 15 8 33 18 W 1008,2 47 0,0
22.07.2018 18:00:00 26,5 8,9 10 6 34 18 WSW 1007,7 49 0,0
22.07.2018 17:00:00 26,6 8,5 14 8 37 20 WSW 1007,7 47 0,0
22.07.2018 16:00:00 26,6 9,0 16 8 37 20 WSW 1007,7 49 0,0
22.07.2018 15:00:00 26,3 8,7 14 8 36 19 SW 1007,8 48 0,0
22.07.2018 14:00:00 25,5 9,3 14 7 38 21 W 1008,1 46 0,0
22.07.2018 13:00:00 25,0 8,9 18 10 38 21 SW 1008,3 48 0,0
22.07.2018 12:00:00 23,7 10,0 14 8 35 19 SW 1008,3 42 0,0
22.07.2018 11:00:00 22,3 10,8 13 7 33 18 WSW 1008,3 48 0,0
22.07.2018 10:00:00 20,0 11,7 10 5 31 17 WSW 1008,4 46 0,0
22.07.2018 09:00:00 19,6 11,9 10 6 31 17 W 1008,4 45 0,0
22.07.2018 08:00:00 17,8 11,6 11 6 29 15 WSW 1008,2 45 0,0
22.07.2018 07:00:00 16,6 11,7 10 5 24 13 W 1008,2 46 0,0
22.07.2018 06:00:00 15,3 11,5 9 5 23 13 WSW 1008,5 46 0,0
22.07.2018 05:00:00 15,1 11,7 8 4 23 13 W 1008,4 47 0,0
22.07.2018 04:00:00 15,0 12,1 10 5 24 13 W 1008,5 49 0,0
22.07.2018 03:00:00 15,2 11,8 9 5 24 13 W 1008,4 49 0,0
22.07.2018 02:00:00 15,5 11,3 10 5 28 15 W 1008,3 50 0,0
22.07.2018 01:00:00 16,5 10,6 11 6 28 15 W 1008,0 50 0,0
22.07.2018 00:00:00 18,0 9,4 11 6 27 14 W 1008,3 50 0,0
21.07.2018 23:00:00 19,4 7,8 8 5 26 14 W 1007,8 50 0,0
21.07.2018 22:00:00 21,2 7,4 11 6 26 14 W 1007,4 50 0,0
21.07.2018 21:00:00 22,9 7,0 10 5 27 14 W 1006,7 50 0,0
21.07.2018 20:00:00 24,3 7,0 13 7 31 17 W 1006,4 50 0,0
21.07.2018 19:00:00 25,7 7,8 9 5 31 17 W 1006,3 47 0,0
21.07.2018 18:00:00 26,7 6,7 12 7 34 18 WSW 1006,6 41 0,0
21.07.2018 17:00:00 27,5 6,3 11 6 34 18 WSW 1006,7 35 0,0
21.07.2018 16:00:00 27,8 5,4 14 8 34 18 SW 1006,7 40 0,0
21.07.2018 15:00:00 - - - - 30 16 - - - -
21.07.2018 14:00:00 28,3 8,6 12 7 29 16 SW 1006,9 42 0,0
21.07.2018 13:00:00 27,8 11,4 13 7 29 16 SW 1007,1 43 0,0
21.07.2018 12:00:00 27,6 11,2 8 4 22 12 W 1007,2 31 0,0
21.07.2018 11:00:00 25,9 11,6 9 5 22 12 WNW 1007,5 39 0,0
21.07.2018 10:00:00 24,7 14,2 9 5 19 10 W 1007,5 39 0,0
21.07.2018 09:00:00 22,9 13,7 6 4 20 11 NW 1007,7 39 0,0
21.07.2018 08:00:00 20,6 13,6 10 5 24 13 NW 1008,0 43 0,0
21.07.2018 07:00:00 19,0 13,8 11 6 24 13 NW 1008,0 41 0,0
21.07.2018 06:00:00 17,7 13,6 10 5 23 12 NW 1008,2 41 0,0
21.07.2018 05:00:00 17,4 12,9 10 5 23 12 NW 1008,3 48 0,0
21.07.2018 04:00:00 18,3 12,1 12 6 25 14 NW 1008,1 48 0,0
21.07.2018 03:00:00 19,5 11,5 13 7 25 14 NW 1007,9 49 0,0
21.07.2018 02:00:00 20,2 12,2 12 6 25 13 NW 1008,0 44 0,0
21.07.2018 01:00:00 21,0 13,2 11 6 18 10 NW 1008,0 42 0,0
21.07.2018 00:00:00 21,8 12,4 7 4 12 6 NW 1007,9 37 0,0
20.07.2018 23:00:00 23,0 12,3 7 4 11 6 NNW 1008,1 35 0,0
20.07.2018 22:00:00 23,3 13,2 7 4 11 6 NNW 1008,0 13 0,0
20.07.2018 21:00:00 24,3 13,2 4 2 9 5 N 1008,0 36 0,0
20.07.2018 20:00:00 25,0 13,2 4 2 13 7 N 1008,1 34 0,0
20.07.2018 19:00:00 24,5 14,9 3 1 19 10 WNW 1008,2 26 0,0
20.07.2018 18:00:00 25,3 13,5 5 3 19 10 W 1008,4 37 0,0
20.07.2018 17:00:00 24,8 13,7 4 2 36 19 SW 1008,6 34 0,1
20.07.2018 16:00:00 22,9 14,5 11 6 36 19 SE 1008,7 37 0,0
20.07.2018 15:00:00 28,0 13,1 7 4 24 13 SSW 1008,2 31 0,0
20.07.2018 14:00:00 26,1 14,9 4 2 24 13 NW 1008,8 20 0,0
20.07.2018 13:00:00 26,9 13,6 4 2 22 12 E 1009,0 36 0,0
20.07.2018 12:00:00 30,0 13,7 11 6 21 12 SSW 1009,1 19 0,0
20.07.2018 11:00:00 28,1 14,3 9 5 18 10 SW 1009,8 34 0,0
20.07.2018 10:00:00 26,9 14,3 8 4 15 8 SSW 1010,1 30 0,0
20.07.2018 09:00:00 24,7 14,2 5 3 15 8 SSW 1010,4 40 0,0
20.07.2018 08:00:00 23,3 13,5 4 2 15 8 NW 1010,7 44 0,0
20.07.2018 07:00:00 20,6 14,5 8 5 15 8 NNW 1011,0 32 0,0
20.07.2018 06:00:00 19,3 16,0 5 3 12 7 NNW 1011,1 24 0,0
20.07.2018 05:00:00 19,4 15,7 7 4 12 7 WNW 1011,3 27 0,0
20.07.2018 04:00:00 18,2 16,5 4 2 8 4 SW 1011,6 21 0,0
20.07.2018 03:00:00 18,7 16,7 4 2 8 4 S 1011,9 24 0,0
20.07.2018 02:00:00 19,2 16,8 4 2 9 5 S 1012,0 26 0,0
20.07.2018 01:00:00 19,6 17,0 4 2 9 5 SSE 1012,2 32 0,0
20.07.2018 00:00:00 21,2 14,4 5 3 8 4 ESE 1012,2 45 0,0
19.07.2018 23:00:00 21,0 12,9 5 3 6 3 E 1012,5 24 0,0
19.07.2018 22:00:00 21,1 14,0 4 2 6 3 E 1012,7 3,8 0,0
19.07.2018 21:00:00 22,3 14,2 3 1 9 5 S 1012,4 35 0,0
19.07.2018 20:00:00 24,1 13,3 2 1 15 8 SSW 1012,4 50 0,0
19.07.2018 19:00:00 25,3 12,5 5 3 21 11 SE 1012,0 47 0,0
19.07.2018 18:00:00 25,2 13,4 8 4 22 12 ESE 1012,0 46 0,0
19.07.2018 17:00:00 25,9 12,4 7 4 32 17 SE 1012,4 47 0,0
19.07.2018 16:00:00 26,1 13,6 15 8 32 17 ESE 1012,4 36 0,0
19.07.2018 15:00:00 28,3 14,2 11 6 26 14 SE 1012,2 37 0,0
19.07.2018 14:00:00 27,6 11,6 7 4 29 16 NE 1012,2 49 0,0
19.07.2018 13:00:00 28,4 11,0 13 7 29 16 N 1012,3 30 0,0
19.07.2018 12:00:00 27,3 12,1 13 7 23 13 NW 1012,6 38 0,0
19.07.2018 11:00:00 25,5 11,6 9 5 18 10 NNW 1012,8 46 0,0
19.07.2018 10:00:00 25,6 10,2 5 3 19 10 NNE 1012,9 42 0,0
19.07.2018 09:00:00 24,8 12,1 4 2 19 10 NNE 1012,8 44 0,0
19.07.2018 08:00:00 21,4 14,1 8 4 22 12 N 1013,2 38 0,0
19.07.2018 07:00:00 19,8 13,7 10 5 24 13 N 1013,2 43 0,0
19.07.2018 06:00:00 18,8 14,1 12 7 24 13 N 1013,0 40 0,0
19.07.2018 05:00:00 18,3 14,6 12 7 25 14 N 1012,9 37 0,0
19.07.2018 04:00:00 18,1 15,0 12 7 26 14 N 1013,0 29 0,0
19.07.2018 03:00:00 18,2 15,3 13 7 26 14 N 1013,1 35 0,0
19.07.2018 02:00:00 18,4 15,3 12 6 22 12 N 1013,3 28 0,0
19.07.2018 01:00:00 18,7 15,0 12 6 23 12 N 1013,4 34 0,0
19.07.2018 00:00:00 18,9 14,8 12 7 25 13 NNW 1013,5 31 0,0
18.07.2018 23:00:00 19,6 14,4 14 7 25 13 NNW 1013,4 35 0,0
18.07.2018 22:00:00 20,6 14,7 10 5 23 12 NNW 1013,3 33 0,0
18.07.2018 21:00:00 22,7 14,8 11 6 21 12 NNW 1013,3 49 0,0
18.07.2018 20:00:00 24,1 12,4 4 2 29 16 E 1012,8 16 0,0
18.07.2018 19:00:00 24,2 11,5 9 5 30 16 ESE 1012,7 50 0,0
18.07.2018 18:00:00 26,0 11,7 12 6 30 16 ESE 1012,5 44 0,0
18.07.2018 17:00:00 29,2 10,3 13 7 29 16 ESE 1012,1 41 0,0
18.07.2018 16:00:00 27,6 12,3 14 7 30 16 SE 1012,1 30 0,0
18.07.2018 15:00:00 28,7 13,2 10 5 36 19 ESE 1011,9 31 0,0
18.07.2018 14:00:00 28,9 13,6 11 6 36 19 ESE 1011,7 25 0,0
18.07.2018 13:00:00 29,7 13,0 13 7 29 16 ESE 1011,7 30 0,0
18.07.2018 12:00:00 30,9 14,9 11 6 25 13 SSE 1011,6 33 0,0
18.07.2018 11:00:00 29,1 14,1 5 3 19 10 E 1012,0 32 0,0
18.07.2018 10:00:00 28,0 15,0 7 4 19 10 E 1012,1 37 0,0
18.07.2018 09:00:00 25,7 14,5 7 4 21 11 ENE 1012,5 36 0,0
18.07.2018 08:00:00 23,7 14,1 8 5 23 12 ENE 1012,6 39 0,0
18.07.2018 07:00:00 21,2 13,4 10 6 23 12 NE 1012,5 40 0,0
18.07.2018 06:00:00 19,8 12,6 8 4 20 11 NE 1012,6 39 0,0
18.07.2018 05:00:00 19,4 11,9 9 5 21 11 NE 1012,5 41 0,0
18.07.2018 04:00:00 19,2 12,0 10 5 21 11 NNE 1012,5 40 0,0
18.07.2018 03:00:00 19,0 12,0 8 4 21 11 NNE 1013,0 46 0,0
18.07.2018 02:00:00 20,0 11,7 10 6 24 13 NE 1013,3 45 0,0
18.07.2018 01:00:00 20,5 11,4 11 6 22 12 NE 1013,3 45 0,0
18.07.2018 00:00:00 19,7 10,9 8 4 16 9 NNE 1013,5 47 0,0
17.07.2018 23:00:00 21,8 10,6 6 3 13 7 NE 1013,5 24 0,0
17.07.2018 22:00:00 22,5 11,3 6 3 11 6 E 1013,6 7 0,0
17.07.2018 21:00:00 22,9 12,2 4 2 19 10 SE 1013,5 50 0,0
17.07.2018 20:00:00 25,0 11,2 5 3 23 12 ESE 1013,0 49 0,0
17.07.2018 19:00:00 26,4 11,7 9 5 29 16 SE 1012,9 48 0,0
17.07.2018 18:00:00 28,2 10,4 10 6 29 16 ESE 1012,9 45 0,0
17.07.2018 17:00:00 29,2 11,3 13 7 33 18 SE 1012,9 40 0,0

tt = Température de l'air
td = dewpoint
ff = Vitesse du vent
fx = gusts
dd = Direction du vent
ppp = reduced air pressure
vv = visibility
rr = Quantités de précipitations

stations d'obs. à proximité